VOZ515 YSSY-YBCG

Flight info

Callsign VOZ515
Flight time 0h 58m
Altitude 37000
Route TESAT H252 OLSEM Y193 BANDA Y43 GREAV DCT GOMOL
Aircraft B738/M-SDE2E3FGHIRWXY/LB1

Departure

Time 2026-05-05 02:03
Airport Sydney Kingsford Smith International Airport (YSSY)

Arrival

Time 2026-05-05 03:01
Airport Gold Coast Airport (YBCG)
Time Latitude Longitude Altitude Speed Heading
2026-05-05 01:28 -33.93576 151.17899 28 ft 0 kts 101°
2026-05-05 01:28 -33.93576 151.17900 28 ft 0 kts 101°
2026-05-05 01:49 -33.93576 151.17898 29 ft 2 kts 101°
2026-05-05 01:49 -33.93571 151.17867 29 ft 4 kts 102°
2026-05-05 01:49 -33.93563 151.17839 29 ft 4 kts 137°
2026-05-05 01:49 -33.93555 151.17832 29 ft 3 kts 190°
2026-05-05 01:50 -33.93582 151.17826 29 ft 4 kts 190°
2026-05-05 01:50 -33.93606 151.17821 29 ft 1 kts 190°
2026-05-05 01:50 -33.93607 151.17821 29 ft 0 kts 190°
2026-05-05 01:53 -33.93610 151.17820 29 ft 2 kts 190°
2026-05-05 01:53 -33.93638 151.17813 29 ft 6 kts 193°
2026-05-05 01:53 -33.93698 151.17795 29 ft 11 kts 194°
2026-05-05 01:54 -33.93789 151.17768 29 ft 16 kts 194°
2026-05-05 01:54 -33.93906 151.17780 28 ft 19 kts 167°
2026-05-05 01:54 -33.94048 151.17817 28 ft 23 kts 168°
2026-05-05 01:54 -33.94206 151.17857 29 ft 24 kts 168°
2026-05-05 01:55 -33.94367 151.17899 29 ft 19 kts 168°
2026-05-05 01:55 -33.94476 151.17890 29 ft 17 kts 207°
2026-05-05 01:55 -33.94597 151.17900 29 ft 19 kts 168°
2026-05-05 01:55 -33.94738 151.17937 29 ft 23 kts 167°
2026-05-05 01:56 -33.94901 151.17979 29 ft 24 kts 168°
2026-05-05 01:56 -33.95015 151.18009 29 ft 13 kts 168°
2026-05-05 01:56 -33.95088 151.18041 29 ft 11 kts 134°
2026-05-05 01:56 -33.95093 151.18147 29 ft 15 kts 78°
2026-05-05 01:57 -33.95066 151.18291 29 ft 20 kts 78°
2026-05-05 01:57 -33.95041 151.18452 29 ft 16 kts 94°
2026-05-05 01:57 -33.95124 151.18552 29 ft 19 kts 138°
2026-05-05 01:57 -33.95234 151.18670 29 ft 23 kts 141°
2026-05-05 01:58 -33.95393 151.18739 29 ft 26 kts 168°
2026-05-05 01:58 -33.95581 151.18787 29 ft 29 kts 168°
2026-05-05 01:58 -33.95784 151.18839 29 ft 31 kts 168°
2026-05-05 01:58 -33.96002 151.18896 29 ft 33 kts 167°
2026-05-05 01:59 -33.96232 151.18956 29 ft 35 kts 168°
2026-05-05 01:59 -33.96473 151.19019 29 ft 36 kts 168°
2026-05-05 01:59 -33.96708 151.19075 29 ft 29 kts 179°
2026-05-05 01:59 -33.96892 151.19083 29 ft 26 kts 168°
2026-05-05 02:00 -33.97057 151.19126 29 ft 22 kts 166°
2026-05-05 02:00 -33.97124 151.19192 29 ft 11 kts 98°
2026-05-05 02:00 -33.97115 151.19261 28 ft 3 kts 77°
2026-05-05 02:00 -33.97114 151.19264 28 ft 0 kts 77°
2026-05-05 02:01 -33.97111 151.19280 27 ft 5 kts 77°
2026-05-05 02:01 -33.97091 151.19357 28 ft 13 kts 52°
2026-05-05 02:02 -33.96993 151.19354 23 ft 20 kts 347°
2026-05-05 02:02 -33.96648 151.19264 22 ft 88 kts 347°
2026-05-05 02:02 -33.95815 151.19045 28 ft 153 kts 344°
2026-05-05 02:02 -33.94728 151.18800 596 ft 165 kts 345°
2026-05-05 02:03 -33.93551 151.18736 1364 ft 175 kts
2026-05-05 02:03 -33.92408 151.19352 2055 ft 191 kts 33°
2026-05-05 02:03 -33.91275 151.20408 2381 ft 222 kts 36°
2026-05-05 02:03 -33.89992 151.21614 2618 ft 245 kts 36°
2026-05-05 02:04 -33.88604 151.22874 3108 ft 254 kts 35°
2026-05-05 02:04 -33.87138 151.24172 3553 ft 268 kts 35°
2026-05-05 02:04 -33.85599 151.25520 3947 ft 282 kts 34°
2026-05-05 02:04 -33.84047 151.26985 4649 ft 284 kts 46°
2026-05-05 02:05 -33.83088 151.29004 4985 ft 277 kts 73°
2026-05-05 02:05 -33.82491 151.31242 4987 ft 284 kts 73°
2026-05-05 02:05 -33.81904 151.33506 4998 ft 282 kts 74°
2026-05-05 02:05 -33.81303 151.35761 5049 ft 286 kts 68°
2026-05-05 02:06 -33.80219 151.37764 5719 ft 287 kts 50°
2026-05-05 02:06 -33.78950 151.39613 6601 ft 288 kts 48°
2026-05-05 02:06 -33.77673 151.41474 7418 ft 288 kts 47°
2026-05-05 02:06 -33.76210 151.43128 8165 ft 289 kts 34°
2026-05-05 02:07 -33.74566 151.44548 8933 ft 292 kts 31°
2026-05-05 02:07 -33.72880 151.45930 9696 ft 295 kts 30°
2026-05-05 02:07 -33.71189 151.47319 10337 ft 303 kts 30°
2026-05-05 02:07 -33.69396 151.48807 10569 ft 325 kts 30°
2026-05-05 02:08 -33.67478 151.50418 10743 ft 348 kts 31°
2026-05-05 02:08 -33.65422 151.52166 10901 ft 369 kts 32°
2026-05-05 02:08 -33.63277 151.54006 11052 ft 388 kts 32°
2026-05-05 02:08 -33.61033 151.55941 11242 ft 404 kts 32°
2026-05-05 02:09 -33.58764 151.57904 11677 ft 409 kts 32°
2026-05-05 02:09 -33.56447 151.59913 12276 ft 412 kts 32°
2026-05-05 02:09 -33.54119 151.61928 12875 ft 414 kts 32°
2026-05-05 02:09 -33.51767 151.63960 13436 ft 417 kts 32°
2026-05-05 02:10 -33.49400 151.66001 14006 ft 420 kts 32°
2026-05-05 02:10 -33.47017 151.68054 14537 ft 423 kts 32°
2026-05-05 02:10 -33.44624 151.70116 15089 ft 425 kts 32°
2026-05-05 02:10 -33.42213 151.72190 15659 ft 428 kts 31°
2026-05-05 02:11 -33.39789 151.74273 16216 ft 430 kts 31°
2026-05-05 02:11 -33.37254 151.76160 16739 ft 428 kts 22°
2026-05-05 02:11 -33.34503 151.77498 17270 ft 425 kts 12°
2026-05-05 02:11 -33.31645 151.78414 17794 ft 426 kts
2026-05-05 02:12 -33.28803 151.79294 18292 ft 429 kts
2026-05-05 02:12 -33.22981 151.81110 19152 ft 435 kts
2026-05-05 02:12 -33.20030 151.82044 19583 ft 437 kts 10°
2026-05-05 02:13 -33.17079 151.82986 19999 ft 440 kts
2026-05-05 02:13 -33.14113 151.83937 20414 ft 443 kts
2026-05-05 02:13 -33.11132 151.84895 20801 ft 445 kts
2026-05-05 02:13 -33.08126 151.85861 21190 ft 448 kts
2026-05-05 02:14 -33.05145 151.86820 21558 ft 451 kts
2026-05-05 02:14 -33.02110 151.87794 21917 ft 453 kts
2026-05-05 02:14 -32.99059 151.88773 22273 ft 456 kts
2026-05-05 02:14 -32.95989 151.89758 22627 ft 458 kts
2026-05-05 02:15 -32.92900 151.90747 22970 ft 460 kts
2026-05-05 02:15 -32.89797 151.91741 23300 ft 462 kts
2026-05-05 02:15 -32.86679 151.92738 23565 ft 466 kts
2026-05-05 02:15 -32.83547 151.93738 23806 ft 468 kts
2026-05-05 02:16 -32.80396 151.94745 24100 ft 469 kts
2026-05-05 02:16 -32.77251 151.95751 24437 ft 468 kts
2026-05-05 02:16 -32.74101 151.96757 24736 ft 468 kts
2026-05-05 02:16 -32.70948 151.97762 25007 ft 470 kts
2026-05-05 02:17 -32.67788 151.98769 25263 ft 471 kts
2026-05-05 02:17 -32.64622 151.99775 25523 ft 472 kts
2026-05-05 02:17 -32.61477 152.00776 25773 ft 472 kts
2026-05-05 02:17 -32.58287 152.01789 26016 ft 473 kts
2026-05-05 02:18 -32.55128 152.02793 26240 ft 473 kts
2026-05-05 02:18 -32.51941 152.03804 26496 ft 472 kts
2026-05-05 02:18 -32.48760 152.04814 26775 ft 470 kts
2026-05-05 02:18 -32.45607 152.05815 27096 ft 468 kts
2026-05-05 02:19 -32.42473 152.06809 27350 ft 468 kts
2026-05-05 02:19 -32.39327 152.07803 27549 ft 468 kts
2026-05-05 02:19 -32.36180 152.08797 27866 ft 466 kts
2026-05-05 02:19 -32.33084 152.09777 28241 ft 463 kts
2026-05-05 02:20 -32.29975 152.10760 28627 ft 461 kts
2026-05-05 02:20 -32.26882 152.11736 28989 ft 459 kts
2026-05-05 02:20 -32.23799 152.12708 29333 ft 458 kts
2026-05-05 02:20 -32.20726 152.13675 29623 ft 457 kts
2026-05-05 02:21 -32.17648 152.14642 29907 ft 457 kts
2026-05-05 02:21 -32.14571 152.15609 30252 ft 456 kts
2026-05-05 02:21 -32.11514 152.16571 30585 ft 454 kts
2026-05-05 02:21 -32.08467 152.17527 30850 ft 454 kts
2026-05-05 02:22 -32.05408 152.18486 31073 ft 455 kts
2026-05-05 02:22 -32.02353 152.19443 31308 ft 455 kts
2026-05-05 02:22 -31.99329 152.20390 31541 ft 455 kts
2026-05-05 02:22 -31.96264 152.21349 31705 ft 457 kts
2026-05-05 02:23 -31.93182 152.22313 31889 ft 458 kts
2026-05-05 02:23 -31.90105 152.23276 32124 ft 458 kts
2026-05-05 02:23 -31.87024 152.24240 32394 ft 457 kts
2026-05-05 02:23 -31.83942 152.25204 32623 ft 458 kts
2026-05-05 02:24 -31.80860 152.26166 32853 ft 458 kts
2026-05-05 02:24 -31.77815 152.27117 33080 ft 457 kts
2026-05-05 02:24 -31.74718 152.28080 33126 ft 463 kts
2026-05-05 02:25 -31.68465 152.30022 33459 ft 465 kts
2026-05-05 02:25 -31.65341 152.30998 33766 ft 463 kts
2026-05-05 02:25 -31.62224 152.31971 34035 ft 462 kts
2026-05-05 02:25 -31.59103 152.32942 34214 ft 463 kts
2026-05-05 02:26 -31.57039 152.33583 34331 ft 464 kts
2026-05-05 02:26 -31.53922 152.34550 34503 ft 463 kts
2026-05-05 02:26 -31.50812 152.35516 34798 ft 460 kts
2026-05-05 02:26 -31.47721 152.36478 35133 ft 457 kts
2026-05-05 02:27 -31.44640 152.37433 35328 ft 457 kts
2026-05-05 02:27 -31.41562 152.38384 35501 ft 457 kts
2026-05-05 02:27 -31.38527 152.39321 35701 ft 457 kts
2026-05-05 02:27 -31.35455 152.40269 35922 ft 456 kts
2026-05-05 02:28 -31.32385 152.41218 36098 ft 455 kts
2026-05-05 02:28 -31.29333 152.42162 36383 ft 452 kts
2026-05-05 02:28 -31.26316 152.43097 36720 ft 448 kts
2026-05-05 02:28 -31.23298 152.44027 36900 ft 448 kts
2026-05-05 02:29 -31.20287 152.44950 36985 ft 449 kts
2026-05-05 02:29 -31.14272 152.46800 37101 ft 446 kts
2026-05-05 02:30 -31.08250 152.48647 37078 ft 448 kts
2026-05-05 02:30 -31.02227 152.50496 37095 ft 447 kts
2026-05-05 02:31 -30.96213 152.52341 37098 ft 446 kts
2026-05-05 02:31 -30.90218 152.54177 37090 ft 445 kts
2026-05-05 02:32 -30.84225 152.56009 37080 ft 445 kts
2026-05-05 02:32 -30.78254 152.57980 37108 ft 453 kts
2026-05-05 02:33 -30.72350 152.60703 37105 ft 458 kts
2026-05-05 02:33 -30.66456 152.63535 37108 ft 458 kts
2026-05-05 02:34 -30.60581 152.66303 37070 ft 457 kts
2026-05-05 02:34 -30.54663 152.69049 37089 ft 457 kts
2026-05-05 02:35 -30.48775 152.71768 37095 ft 454 kts
2026-05-05 02:35 -30.42897 152.74477 37100 ft 455 kts
2026-05-05 02:36 -30.37005 152.77189 37098 ft 456 kts
2026-05-05 02:36 -30.31124 152.79897 37095 ft 456 kts
2026-05-05 02:37 -30.25233 152.82605 37074 ft 457 kts
2026-05-05 02:37 -30.19311 152.85325 37083 ft 457 kts
2026-05-05 02:38 -30.13392 152.88040 37076 ft 457 kts
2026-05-05 02:38 -30.07508 152.90733 37077 ft 457 kts
2026-05-05 02:39 -30.01605 152.93429 37082 ft 457 kts
2026-05-05 02:39 -29.95688 152.96124 36932 ft 458 kts
2026-05-05 02:39 -29.92736 152.97470 36445 ft 453 kts
2026-05-05 02:40 -29.89797 152.98813 35811 ft 452 kts
2026-05-05 02:40 -29.86870 153.00146 35161 ft 452 kts
2026-05-05 02:40 -29.83934 153.01479 34494 ft 454 kts
2026-05-05 02:40 -29.80987 153.02815 33744 ft 456 kts
2026-05-05 02:41 -29.78032 153.04155 32985 ft 456 kts 10°
2026-05-05 02:41 -29.75115 153.05479 32244 ft 457 kts 10°
2026-05-05 02:41 -29.72142 153.06829 31489 ft 457 kts 11°
2026-05-05 02:41 -29.69188 153.08169 30700 ft 457 kts 11°
2026-05-05 02:42 -29.66228 153.09511 29894 ft 457 kts 11°
2026-05-05 02:42 -29.63261 153.10855 28949 ft 458 kts 12°
2026-05-05 02:42 -29.60302 153.12195 28074 ft 457 kts 12°
2026-05-05 02:42 -29.57336 153.13537 27147 ft 458 kts 13°
2026-05-05 02:43 -29.54369 153.14877 26198 ft 459 kts 13°
2026-05-05 02:43 -29.51400 153.16219 25463 ft 456 kts 14°
2026-05-05 02:43 -29.48477 153.17542 24807 ft 451 kts 14°
2026-05-05 02:43 -29.45559 153.18863 24102 ft 448 kts 14°
2026-05-05 02:44 -29.42673 153.20166 23408 ft 444 kts 14°
2026-05-05 02:44 -29.39807 153.21457 22654 ft 440 kts 14°
2026-05-05 02:44 -29.37004 153.22720 21964 ft 435 kts 15°
2026-05-05 02:44 -29.34207 153.23979 21293 ft 430 kts 15°
2026-05-05 02:45 -29.31432 153.25226 20594 ft 426 kts 16°
2026-05-05 02:45 -29.28686 153.26460 19988 ft 421 kts 17°
2026-05-05 02:45 -29.25957 153.27685 19338 ft 417 kts 17°
2026-05-05 02:45 -29.23263 153.28894 18692 ft 414 kts 18°
2026-05-05 02:46 -29.20592 153.30092 17991 ft 412 kts 18°
2026-05-05 02:46 -29.17938 153.31282 17296 ft 408 kts 18°
2026-05-05 02:46 -29.15300 153.32464 16626 ft 405 kts 19°
2026-05-05 02:46 -29.12717 153.33621 16002 ft 402 kts 19°
2026-05-05 02:47 -29.10120 153.34784 15375 ft 399 kts 19°
2026-05-05 02:47 -29.07540 153.35939 14746 ft 397 kts 20°
2026-05-05 02:47 -29.04978 153.37084 14113 ft 395 kts 20°
2026-05-05 02:47 -29.02422 153.38227 13439 ft 394 kts 20°
2026-05-05 02:48 -28.99870 153.39368 12781 ft 392 kts 20°
2026-05-05 02:48 -28.97338 153.40499 12154 ft 389 kts 21°
2026-05-05 02:48 -28.94805 153.41629 11555 ft 386 kts 21°
2026-05-05 02:48 -28.92335 153.42733 11297 ft 374 kts 21°
2026-05-05 02:49 -28.89953 153.43795 11133 ft 362 kts 21°
2026-05-05 02:49 -28.87629 153.44831 10977 ft 354 kts 21°
2026-05-05 02:49 -28.85386 153.45830 10834 ft 347 kts 21°
2026-05-05 02:49 -28.83169 153.46817 10690 ft 337 kts 21°
2026-05-05 02:50 -28.81018 153.47774 10535 ft 327 kts 21°
2026-05-05 02:50 -28.78925 153.48705 10370 ft 318 kts 21°
2026-05-05 02:50 -28.76893 153.49610 10227 ft 310 kts 21°
2026-05-05 02:50 -28.74912 153.50491 10097 ft 302 kts 21°
2026-05-05 02:51 -28.72974 153.51352 9922 ft 296 kts 21°
2026-05-05 02:51 -28.71056 153.52205 9599 ft 295 kts 21°
2026-05-05 02:51 -28.69155 153.53049 9307 ft 293 kts 21°
2026-05-05 02:51 -28.67265 153.53888 9024 ft 291 kts 21°
2026-05-05 02:52 -28.65380 153.54725 8711 ft 290 kts 21°
2026-05-05 02:52 -28.63503 153.55558 8424 ft 288 kts 21°
2026-05-05 02:52 -28.61636 153.56386 8137 ft 287 kts 21°
2026-05-05 02:52 -28.59803 153.57198 7847 ft 286 kts 21°
2026-05-05 02:53 -28.57957 153.58016 7565 ft 284 kts 21°
2026-05-05 02:53 -28.56116 153.58831 7276 ft 283 kts 21°
2026-05-05 02:53 -28.54287 153.59640 6991 ft 281 kts 21°
2026-05-05 02:53 -28.52468 153.60443 6711 ft 280 kts 21°
2026-05-05 02:54 -28.50637 153.61172 6426 ft 278 kts 18°
2026-05-05 02:54 -28.48813 153.61846 6114 ft 272 kts 18°
2026-05-05 02:54 -28.47033 153.62503 5828 ft 266 kts 18°
2026-05-05 02:54 -28.45283 153.63156 5557 ft 264 kts 18°
2026-05-05 02:55 -28.43542 153.63810 5290 ft 263 kts 18°
2026-05-05 02:55 -28.41812 153.64461 5028 ft 261 kts 18°
2026-05-05 02:55 -28.40078 153.64995 4739 ft 255 kts
2026-05-05 02:55 -28.38401 153.64569 4487 ft 245 kts 330°
2026-05-05 02:56 -28.36955 153.63601 4250 ft 238 kts 329°
2026-05-05 02:56 -28.35524 153.62689 4006 ft 234 kts 329°
2026-05-05 02:56 -28.34118 153.61802 3760 ft 229 kts 329°
2026-05-05 02:56 -28.32756 153.60939 3492 ft 222 kts 329°
2026-05-05 02:57 -28.31417 153.60089 3169 ft 217 kts 329°
2026-05-05 02:57 -28.30120 153.59266 2878 ft 211 kts 329°
2026-05-05 02:57 -28.28880 153.58478 2630 ft 203 kts 329°
2026-05-05 02:57 -28.27669 153.57708 2364 ft 196 kts 329°
2026-05-05 02:58 -28.26501 153.56966 2085 ft 188 kts 330°
2026-05-05 02:58 -28.25390 153.56259 1851 ft 178 kts 330°
2026-05-05 02:58 -28.24361 153.55606 1642 ft 164 kts 331°
2026-05-05 02:58 -28.23395 153.54992 1403 ft 156 kts 331°
2026-05-05 02:59 -28.22457 153.54396 1219 ft 155 kts 332°
2026-05-05 02:59 -28.21513 153.53795 998 ft 157 kts 331°
2026-05-05 02:59 -28.20570 153.53195 792 ft 153 kts 332°
2026-05-05 02:59 -28.19646 153.52609 580 ft 151 kts 332°
2026-05-05 03:00 -28.18728 153.52030 352 ft 149 kts 333°
2026-05-05 03:00 -28.17827 153.51457 163 ft 147 kts 333°
2026-05-05 03:00 -28.16938 153.50891 33 ft 146 kts 333°
2026-05-05 03:00 -28.16079 153.50343 26 ft 124 kts 330°
2026-05-05 03:01 -28.15719 153.50123 27 ft 11 kts 332°
2026-05-05 03:01 -28.15645 153.50119 25 ft 12 kts 39°
2026-05-05 03:01 -28.15608 153.50198 25 ft 11 kts 78°
2026-05-05 03:01 -28.15639 153.50273 28 ft 11 kts 145°
2026-05-05 03:02 -28.15704 153.50320 27 ft 11 kts 148°
2026-05-05 03:02 -28.15782 153.50370 25 ft 15 kts 150°
2026-05-05 03:02 -28.15886 153.50435 26 ft 19 kts 150°
2026-05-05 03:02 -28.16013 153.50517 26 ft 23 kts 150°
2026-05-05 03:03 -28.16161 153.50611 26 ft 26 kts 150°
2026-05-05 03:03 -28.16323 153.50714 27 ft 28 kts 150°
2026-05-05 03:03 -28.16493 153.50822 28 ft 29 kts 150°
2026-05-05 03:03 -28.16665 153.50932 26 ft 28 kts 150°
2026-05-05 03:04 -28.16808 153.51023 26 ft 20 kts 150°
2026-05-05 03:04 -28.16869 153.51096 27 ft 12 kts 83°
2026-05-05 03:04 -28.16868 153.51169 28 ft 6 kts 99°
2026-05-05 03:04 -28.16858 153.51205 25 ft 2 kts 61°
2026-05-05 03:05 -28.16852 153.51217 25 ft 2 kts 59°
2026-05-05 03:05 -28.16846 153.51229 25 ft 2 kts 60°
2026-05-05 03:05 -28.16840 153.51240 27 ft 2 kts 60°
2026-05-05 03:05 -28.16837 153.51246 25 ft 0 kts 61°